Location: Unspecified
(0.0000°N, 0.0000°E)
Time: 09:45:56
(UTC+00:00)

RS-15 - Visible Passes

Search period start: 16 June 2025 00:00
Search period end: 26 June 2025 00:00
Orbit: 1900 x 2144 km, 64.8° (Epoch: 15 June)

Date Brightness Start Highest point End Pass type
(mag) Time Alt. Az. Time Alt. Az. Time Alt. Az.
16 Jun 8.8 05:15:58 10° N 05:27:10 60° ENE 05:38:52 10° SSE visible
16 Jun 9.9 19:13:07 10° WSW 19:22:15 28° WNW 19:31:10 10° NNW visible
17 Jun 9.3 04:40:40 10° N 04:51:13 42° ENE 05:02:09 10° SE visible
17 Jun 9.4 18:35:46 10° SW 18:46:16 41° WNW 18:56:25 10° N visible
18 Jun 9.8 04:05:50 10° NNE 04:15:13 29° ENE 04:24:50 10° SE visible
19 Jun 10.2 03:31:49 10° NNE 03:39:10 19° ENE 03:46:37 10° ESE visible
20 Jun 10.5 03:00:20 10° NE 03:03:00 11° ENE 03:05:41 10° E visible
20 Jun 8.2 05:03:38 10° NNW 05:15:09 86° ENE 05:27:14 10° SSE visible
20 Jun 10.7 19:03:59 10° WSW 19:10:21 17° WNW 19:16:39 10° NNW visible
21 Jun 8.5 04:27:55 10° N 04:39:12 63° ENE 04:50:59 10° SSE visible
21 Jun 10.3 18:25:25 10° WSW 18:34:17 26° WNW 18:42:57 10° NNW visible
22 Jun 9.0 03:52:34 10° N 04:03:14 45° ENE 04:14:19 10° SE visible
23 Jun 9.5 03:17:39 10° N 03:27:15 31° ENE 03:37:07 10° SE visible
23 Jun 8.3 05:28:18 10° NW 05:39:11 48° WSW 05:50:37 10° S visible
24 Jun 9.9 02:43:29 10° NNE 02:51:12 20° ENE 02:59:04 10° ESE visible
24 Jun 8.0 04:51:47 10° NNW 05:03:10 68° WSW 05:15:07 10° SSE visible
25 Jun 10.2 02:11:12 10° NE 02:15:04 12° ENE 02:18:57 10° E visible
25 Jun 8.0 04:15:39 10° NNW 04:27:11 89° ENE 04:39:17 10° SSE visible
25 Jun 10.9 18:16:34 10° W 18:22:24 15° WNW 18:28:11 10° NW visible
